Volver al catálogo

TIANPING-2C

ActivoCienciaSSO
NORAD 52155·PAYLOAD·🇨🇳 China
Este nombre de satélite aún no ha sido confirmado por fuentes oficiales.

Lanzado Mar 30, 2022 desde Jiuquan Satellite Launch Center

Loading…

Próximos Pases (próximas 24 horas)

TLE

ActualizadoSource: Space-Track

Época: Sep 14, 2026, 13:50 UTC

1 52155U 22032C   26257.57662884  .00000994  00000-0  80237-4 0  9991
2 52155  97.5805 300.8004 0018861 225.4681 134.5004 15.01968775243691

Sigue TIANPING-2C en tiempo real con AllMySat

Download on the App Store